Regional Weather Roundup
Issued by NWS

Home | Current Version | Previous Version | Graphics & Text | Print | Product List | Glossary On
Versions: 1 2 3 4 5 6 7 8 9 10 11 12 13 14 15 16 17 18 19 20 21 22 23 24 25 26 27 28 29 30 31 32 33 34 35 36 37 38 39 40 41 42 43 44 45 46 47 48 49 50
000
ASUS43 KIND 250309
RWRIN

WEATHER ROUNDUP FOR INDIANA
NATIONAL WEATHER SERVICE INDIANAPOLIS IN
1100 PM EDT WED AUG 24 2016

NOTE: "FAIR" INDICATES FEW OR NO CLOUDS BELOW 12,000 FEET WITH NO
SIGNIFICANT WEATHER AND/OR OBSTRUCTIONS TO VISIBILITY.

* - STATION DOES NOT REPORT WEATHER SUCH AS PRECIPITATION OR FOG.

+ - STATION NOT QUALITY CONTROLLED BY THE NATIONAL WEATHER SERVICE.
    USE DATA WITH CAUTION...ESPECIALLY DEWPOINT AND RELATIVE
    HUMIDITY OBSERVATIONS.

INZ001>003-010>013-019-020-250400-
NORTHWEST INDIANA

CITY           SKY/WX    TMP DP  RH WIND       PRES   REMARKS
GARY /AIRPORT/ MOCLDY    77  73  88 SW6       29.98S
KNOX *+        CLEAR     70  54  56 SW5       29.99F
LA PORTE +     CLEAR     75  75 100 SW7       29.99F
MICHIGAN CITY+ CLEAR     72  72 100 MISG      29.99S
MONTICELLO +   CLEAR     73  66  79 W3        30.01S
RENSSELAER +   CLEAR     72  70  94 SW5       30.01S
VALPARAISO     CLEAR     73  69  87 SW6       29.99F

$$

LMZ046-743>745-250400-
SOUTHERN LAKE MICHIGAN

STATION/POSITION TIME  TEMP    WIND        PRES    WAVE
                       AIR SEA DIR/SP/G            HT
                 (UTC) (F)     (DEG/KT/KT) (MB)    (FT)
BURNS HARBOR     0210   78     210/ 11/ 13 1015.6R
MICHIGAN CITY    0200   77     180/ 10/ 12   N/A
5NW MICH CITY    0200   75 74  210/  6/  8   N/A     1

$$

INZ004-005-014>016-021>024-250400-
NORTH CENTRAL INDIANA

CITY           SKY/WX    TMP DP  RH WIND       PRES   REMARKS
GOSHEN         CLEAR     72  69  90 SW7       29.99S
LOGANSPORT +   CLEAR     70  68  94 W5        30.02S
PERU/GRISSOM   CLEAR     71  71 100 SW5       30.00S
ROCHESTER +    CLEAR     73  72  94 W3        30.01S
SOUTH BEND     CLEAR     73  70  90 SW7       29.99S
WARSAW +       CLEAR     72  72 100 SW5       30.00S

$$

INZ006>009-017-018-025>027-250400-
NORTHEAST INDIANA

CITY           SKY/WX    TMP DP  RH WIND       PRES   REMARKS
ANGOLA *+      CLEAR     73  68  83 W7        29.99S
AUBURN +       CLEAR     73  70  88 SW5       30.00R
FORT WAYNE     PTCLDY    73  71  93 W7        30.00S
HUNTINGTON +   CLEAR    N/A N/A N/A W5        30.00F

$$

INZ028-029-035-036-043>045-051>053-250400-
WEST CENTRAL INDIANA

CITY           SKY/WX    TMP DP  RH WIND       PRES   REMARKS
CRAWFORDSVL +  PTCLDY    74  74 100 SW5       30.04S
GREENCASTLE +  MOCLDY    77  77 100 CALM      30.05F
LAFAYETTE      CLEAR     71  71 100 CALM      30.01S
TERRE HAUTE    PTCLDY    80  75  84 S5        30.04S

$$

INZ030>032-037>040-046>048-054>057-064-065-250400-
CENTRAL INDIANA

CITY           SKY/WX    TMP DP  RH WIND       PRES   REMARKS
INDIANAPOLIS   MOCLDY    79  75  87 SW9       30.03S
-EAGLE CREEK   PTCLDY    79  74  84 SW6       30.03R
MARION +       MOCLDY    72  72  98 CALM      30.03R
MT COMFORT *+  PTCLDY    75  73  94 SW8       30.04S
SHELBYVILLE    MOCLDY    76  72  87 S7        30.04S
ZIONSVILLE +   PTCLDY    76  74  95 SW6       30.04S

$$

INZ033-034-041-042-049-050-058-059-250400-
EAST CENTRAL INDIANA

CITY           SKY/WX    TMP DP  RH WIND       PRES   REMARKS
MUNCIE         CLOUDY    77  74  90 NW8       30.04R

$$

INZ060-061-067>069-081>083-085>088-250400-
SOUTHWEST INDIANA

CITY           SKY/WX    TMP DP  RH WIND       PRES   REMARKS
EVANSVILLE     CLEAR     82  75  79 S6        30.07F
HUNTINGBURG *+ CLEAR     79  72  78 S8        30.07F
WASHINGTON +   CLEAR     78  76  93 MISG      30.05S

$$

INZ062-063-066-070>080-084-089>092-250400-
SOUTH CENTRAL AND SOUTHEAST INDIANA

CITY           SKY/WX    TMP DP  RH WIND       PRES   REMARKS
BLOOMINGTON    PTCLDY    78  73  84 SW7       30.06S
MADISON *+     CLEAR     79  72  78 S8        30.10S

$$




USA.gov is the U.S. government's official web portal to all federal, state and local government web resources and services.